TimeEST,TemperatureF,Dew PointF,Humidity,Sea Level PressureIn,VisibilityMPH,Wind Direction,Wind SpeedMPH,Gust SpeedMPH,PrecipitationIn,Events,Conditions,WindDirDegrees,DateUTC
12:54 AM,54.0,46.0,75,30.10,10.0,South,9.2,19.6,N/A,,Overcast,190,2009-02-27 05:54:00
1:54 AM,54.0,45.0,72,30.09,10.0,South,11.5,-,N/A,,Overcast,170,2009-02-27 06:54:00
2:54 AM,53.1,45.0,74,30.08,10.0,South,10.4,-,N/A,,Overcast,170,2009-02-27 07:54:00
3:54 AM,52.0,45.0,77,30.08,10.0,SSE,9.2,-,N/A,,Overcast,150,2009-02-27 08:54:00
4:54 AM,52.0,45.0,77,30.05,10.0,SSE,16.1,-,N/A,,Overcast,160,2009-02-27 09:54:00
5:54 AM,52.0,45.0,77,30.05,10.0,South,11.5,-,N/A,,Overcast,170,2009-02-27 10:54:00
6:54 AM,51.1,45.0,80,30.05,10.0,South,8.1,-,N/A,,Overcast,180,2009-02-27 11:54:00
7:46 AM,51.8,46.4,82,30.09,10.0,South,9.2,-,N/A,,Overcast,190,2009-02-27 12:46:00
7:54 AM,50.0,46.0,86,30.06,7.0,South,8.1,-,0.00,Rain,Light Rain,190,2009-02-27 12:54:00
8:42 AM,50.0,46.4,87,30.09,8.0,SSW,10.4,-,0.01,Rain,Light Rain,200,2009-02-27 13:42:00
8:54 AM,50.0,46.9,89,30.06,5.0,SSW,13.8,19.6,0.02,Rain,Light Rain,200,2009-02-27 13:54:00
9:54 AM,48.9,48.0,97,30.06,6.0,South,9.2,-,0.03,Rain,Light Rain,180,2009-02-27 14:54:00
10:07 AM,48.2,48.2,100,30.10,5.0,South,5.8,-,0.00,Rain,Light Rain,190,2009-02-27 15:07:00
10:46 AM,50.0,48.2,94,30.10,9.0,South,8.1,-,0.02,Rain,Light Rain,190,2009-02-27 15:46:00
10:54 AM,50.0,48.0,93,30.08,10.0,SSW,9.2,-,0.02,Rain,Light Rain,200,2009-02-27 15:54:00
11:54 AM,50.0,48.0,93,30.07,9.0,South,11.5,-,0.04,Rain,Light Rain,180,2009-02-27 16:54:00
12:30 PM,51.8,48.2,88,30.09,10.0,South,8.1,-,0.02,Rain,Light Rain,190,2009-02-27 17:30:00
12:52 PM,51.8,48.2,88,30.06,10.0,South,9.2,-,0.02,,Overcast,170,2009-02-27 17:52:00
12:54 PM,51.1,48.9,92,30.03,10.0,South,9.2,-,0.02,,Mostly Cloudy,180,2009-02-27 17:54:00
1:08 PM,51.8,48.2,88,30.06,10.0,Calm,Calm,-,N/A,,Overcast,0,2009-02-27 18:08:00
1:54 PM,52.0,48.0,86,30.03,10.0,SSW,12.7,16.1,N/A,,Overcast,200,2009-02-27 18:54:00
2:54 PM,51.1,48.0,89,30.01,10.0,SSW,8.1,-,N/A,,Overcast,200,2009-02-27 19:54:00
3:01 PM,51.8,48.2,88,30.02,10.0,South,8.1,17.3,N/A,,Overcast,190,2009-02-27 20:01:00
3:54 PM,51.1,48.0,89,29.98,10.0,South,6.9,-,N/A,,Overcast,190,2009-02-27 20:54:00
4:54 PM,51.1,48.0,89,29.98,10.0,SSW,10.4,-,N/A,,Overcast,200,2009-02-27 21:54:00
5:54 PM,51.1,48.0,89,29.98,10.0,SSW,4.6,-,N/A,,Overcast,210,2009-02-27 22:54:00
6:50 PM,50.0,46.4,87,30.02,10.0,South,5.8,-,N/A,,Overcast,190,2009-02-27 23:50:00
6:54 PM,50.0,46.9,89,30.01,10.0,South,8.1,-,N/A,,Overcast,190,2009-02-27 23:54:00
7:54 PM,50.0,46.9,89,30.02,10.0,South,4.6,-,N/A,,Scattered Clouds,190,2009-02-28 00:54:00
8:54 PM,50.0,46.9,89,30.03,10.0,Calm,Calm,-,N/A,,Overcast,0,2009-02-28 01:54:00
9:54 PM,48.9,46.9,93,30.02,10.0,Calm,Calm,-,N/A,,Mostly Cloudy,0,2009-02-28 02:54:00
10:54 PM,48.0,46.9,96,30.03,10.0,Calm,Calm,-,N/A,,Clear,0,2009-02-28 03:54:00
11:54 PM,46.9,46.0,97,30.01,9.0,Calm,Calm,-,N/A,,Mostly Cloudy,0,2009-02-28 04:54:00